Home   Weather   Weyhe   Past weeks

Flag for Germany Past Weather in Weyhe, Lower Saxony, Germany — Yesterday and Last 2 Weeks

Now
37 °F

Passing clouds.


Feels Like: 37 °F
Forecast: 29 / 51 °F
Wind: No wind

Location: Bremen Airport

Current Time: Apr 26, 2017 at 8:26:18 am

Latest Report: Apr 26, 2017 at 7:50 am


Visibility: N/A

Pressure: 29.83 "Hg

Humidity: 87%

Dew Point: 34 °F

Location of WeyheLocation

Past Weather in Weyhe — Graph

°F

Weyhe Temperature Yesterday

Maximum temperature yesterday: 46 °F (at 11:50 am)
Minimum temperature yesterday: 36 °F (at 10:20 pm)
Average temperature yesterday: 42 °F

High & Low Weather Summary for the Past Weeks

 TemperatureHumidityPressure
High57 °F (Apr 21, 11:50 am)100% (Apr 14, 5:20 am)30.63 "Hg (Apr 14, 5:20 am)
Low27 °F (Apr 20, 6:20 am)35% (Apr 20, 5:50 pm)29.59 "Hg (Apr 25, 5:20 am)
Average44 °F75%30.09 "Hg
* Reported Apr 11 7:20 am — Apr 26 7:20 am, Weyhe, Weather by CustomWeather, © 2017

Note: Actual official high and low records may vary slightly from our data, if they occured in-between our weather recording intervals... More about our weather records

Advertising

Weyhe Weather History for the Previous 24 Hours

Scroll right to see more
 ConditionsComfort  
Time TempWeatherWind HumidityBarometerVisibility
7:20 am
Wed, Apr 26
37 °FFog.1 mph87%29.83 "HgN/A
6:50 am32 °FLight fog.2 mph100%29.83 "HgN/A
6:20 am32 °FLight fog.1 mph93%29.83 "HgN/A
5:50 am32 °FLight fog.2 mph93%29.83 "HgN/A
5:20 am32 °FFog.1 mph93%29.83 "HgN/A
4:50 am34 °FClear.3 mph93%29.80 "Hg10 mi
4:20 am34 °FClear.2 mph93%29.80 "Hg10 mi
3:50 am34 °FClear.3 mph93%29.80 "Hg10 mi
3:20 am34 °FClear.2 mph93%29.80 "Hg10 mi
2:50 am34 °FPassing clouds.3 mph93%29.80 "HgN/A
2:20 am34 °FPassing clouds.5 mph87%29.80 "HgN/A
1:50 am34 °FPassing clouds.5 mph87%29.80 "HgN/A
1:20 am34 °FPassing clouds.7 mph87%29.80 "HgN/A
12:50 am34 °FClear.6 mph87%29.80 "Hg10 mi
12:20 am36 °FClear.7 mph87%29.80 "Hg10 mi
11:50 pm
Tue, Apr 25
36 °FClear.6 mph87%29.80 "Hg10 mi
11:20 pm39 °FPassing clouds.9 mph81%29.80 "HgN/A
10:50 pm37 °FClear.7 mph81%29.77 "Hg10 mi
10:20 pm36 °FPassing clouds.6 mph87%29.77 "HgN/A
9:50 pm37 °FPassing clouds.5 mph81%29.77 "HgN/A
9:20 pm39 °FPassing clouds.7 mph75%29.77 "HgN/A
8:50 pm39 °FPassing clouds.7 mph75%29.77 "HgN/A
8:20 pm39 °FPassing clouds.8 mph81%29.77 "HgN/A
7:50 pm45 °FScattered showers. Scattered clouds.9 mph66%29.77 "HgN/A
7:20 pm43 °FRain showers. Scattered clouds.7 mph76%29.77 "HgN/A
6:50 pm45 °FScattered clouds.9 mph66%29.77 "HgN/A
6:20 pm46 °FCool.10 mph62%29.77 "HgN/A
5:50 pm45 °FScattered clouds.8 mph71%29.74 "HgN/A
5:20 pm45 °FScattered clouds.10 mph66%29.74 "HgN/A
4:50 pm46 °FScattered clouds.14 mph53%29.74 "HgN/A
4:20 pm46 °FScattered clouds.12 mph57%29.74 "HgN/A
3:50 pm46 °FScattered clouds.8 mph62%29.74 "HgN/A
3:20 pm43 °FScattered clouds.10 mph71%29.71 "HgN/A
2:50 pm43 °FScattered clouds.14 mph71%29.71 "HgN/A
2:20 pm45 °FScattered clouds.10 mph71%29.71 "HgN/A
1:50 pm43 °FScattered clouds.10 mph76%29.68 "HgN/A
1:20 pm41 °FScattered clouds.9 mph81%29.68 "HgN/A
12:50 pm39 °FThundershowers. Partly sunny.23 mph87%29.68 "HgN/A
12:20 pm39 °FPartly sunny.18 mph81%29.65 "HgN/A
11:50 am46 °FPartly sunny.21 mph62%29.62 "HgN/A
11:20 am45 °FPartly sunny.16 mph71%29.62 "HgN/A
10:50 am43 °FPartly sunny.18 mph71%29.62 "HgN/A
10:20 am43 °FSprinkles. Partly sunny.20 mph71%29.62 "HgN/A
9:50 am43 °FPartly sunny.21 mph71%29.62 "HgN/A
9:20 am43 °FScattered clouds.18 mph76%29.62 "HgN/A
8:50 am43 °FScattered clouds.16 mph76%29.62 "HgN/A
8:20 am41 °FScattered clouds.17 mph81%29.62 "HgN/A
Weather by CustomWeather, © 2017

See weather overviewHow to use our weather pages